| time (UTC) | temp F | wind direction | speed MPH | gust MPH | rain 1hr in | rain 24hr in | rain mn in | humidity % | barometer mb |
| 20260902011916 | 64 | 7 | 0.0 | 0.0 | 0.00 | 1.19 | 1.19 | 99 | 1021.0 |
| 20260902011411 | 64 | 7 | 0.0 | 0.0 | 0.00 | 1.19 | 1.19 | 99 | 1020.9 |
| 20260902010910 | 64 | 14 | 0.0 | 0.0 | 0.00 | 1.19 | 1.19 | 99 | 1020.8 |
| 20260902010405 | 64 | 14 | 0.0 | 0.0 | 0.00 | 1.19 | 1.19 | 99 | 1020.9 |
| 20260902005905 | 64 | 14 | 0.0 | 0.0 | 0.00 | 1.19 | 1.19 | 99 | 1020.8 |
| 20260902005404 | 64 | 14 | 0.0 | 0.0 | 0.00 | 1.19 | 1.19 | 99 | 1020.6 |
| 20260902004900 | 64 | 16 | 0.0 | 0.0 | 0.00 | 1.19 | 1.19 | 99 | 1020.6 |
| 20260902004400 | 65 | 18 | 0.0 | 0.0 | 0.00 | 1.19 | 1.19 | 99 | 1020.6 |
| 20260902003855 | 65 | 17 | 0.0 | 0.0 | 0.00 | 1.19 | 1.19 | 99 | 1020.1 |
| 20260902003350 | 65 | 19 | 0.0 | 0.0 | 0.00 | 1.19 | 1.19 | 99 | 1020.3 |
| 20260902002846 | 65 | 18 | 0.0 | 0.0 | 0.00 | 1.19 | 1.19 | 99 | 1020.4 |
| 20260902002344 | 65 | 329 | 0.0 | 1.0 | 0.00 | 1.19 | 1.19 | 99 | 1020.4 |
| 20260902001840 | 65 | 350 | 1.0 | 1.0 | 0.00 | 1.19 | 1.19 | 99 | 1020.0 |
| 20260902001335 | 65 | 355 | 0.0 | 0.0 | 0.00 | 1.19 | 1.19 | 99 | 1020.0 |
| 20260902000830 | 65 | 356 | 0.0 | 0.0 | 0.00 | 1.19 | 1.19 | 99 | 1019.9 |
| 20260902000324 | 65 | 354 | 0.0 | 0.0 | 0.00 | 1.19 | 1.19 | 99 | 1020.0 |
| 20260901235820 | 65 | 2 | 0.0 | 0.0 | 0.00 | 1.19 | 1.19 | 99 | 1019.8 |
| 20260901235319 | 65 | 11 | 1.0 | 1.0 | 0.00 | 1.19 | 1.19 | 99 | 1020.0 |
| 20260901234814 | 65 | 9 | 0.0 | 0.0 | 0.00 | 1.19 | 1.19 | 99 | 1019.7 |
| 20260901234308 | 65 | 17 | 0.0 | 0.0 | 0.00 | 1.19 | 1.19 | 99 | 1019.9 |
| 20260901233804 | 65 | 3 | 0.0 | 0.0 | 0.00 | 1.19 | 1.19 | 99 | 1020.0 |
| 20260901233259 | 65 | 14 | 0.0 | 0.0 | 0.00 | 1.19 | 1.19 | 99 | 1020.1 |
| 20260901232755 | 65 | 15 | 1.0 | 1.0 | 0.00 | 1.19 | 1.19 | 99 | 1020.1 |
| 20260901232249 | 66 | 350 | 0.0 | 0.0 | 0.00 | 1.19 | 1.19 | 99 | 1019.9 |
| 20260901231746 | 66 | 356 | 0.0 | 1.0 | 0.00 | 1.19 | 1.19 | 99 | 1019.8 |
| 20260901231242 | 66 | 352 | 0.0 | 0.0 | 0.00 | 1.19 | 1.19 | 99 | 1019.9 |
| 20260901230738 | 66 | 359 | 0.0 | 0.0 | 0.00 | 1.19 | 1.19 | 99 | 1019.5 |
| 20260901230237 | 66 | 28 | 0.0 | 0.0 | 0.00 | 1.19 | 1.19 | 99 | 1019.6 |
| 20260901225733 | 66 | 350 | 0.0 | 0.0 | 0.00 | 1.19 | 1.19 | 99 | 1019.9 |
| 20260901225226 | 66 | 350 | 1.0 | 2.0 | 0.00 | 1.19 | 1.19 | 99 | 1019.9 |
| 20260901224722 | 67 | 23 | 1.0 | 2.0 | 0.00 | 1.19 | 1.19 | 99 | 1019.8 |
| 20260901224218 | 67 | 1 | 0.0 | 0.0 | 0.00 | 1.19 | 1.19 | 99 | 1019.9 |
| 20260901223714 | 67 | 21 | 0.0 | 0.0 | 0.00 | 1.19 | 1.19 | 99 | 1020.0 |
| 20260901223209 | 67 | 12 | 0.0 | 0.0 | 0.00 | 1.19 | 1.19 | 99 | 1019.9 |
| 20260901222705 | 68 | 355 | 0.0 | 0.0 | 0.00 | 1.19 | 1.19 | 99 | 1019.9 |
| 20260901222201 | 68 | 357 | 0.0 | 0.0 | 0.00 | 1.19 | 1.19 | 99 | 1019.8 |
| 20260901221657 | 68 | 352 | 0.0 | 0.0 | 0.00 | 1.19 | 1.19 | 99 | 1019.8 |
| 20260901221153 | 67 | 352 | 0.0 | 0.0 | 0.00 | 1.19 | 1.19 | 99 | 1019.8 |
| 20260901220652 | 68 | 3 | 0.0 | 0.0 | 0.00 | 1.19 | 1.19 | 99 | 1019.7 |
| 20260901220152 | 68 | 356 | 0.0 | 0.0 | 0.00 | 1.19 | 1.19 | 99 | 1019.4 |
| 20260901215650 | 68 | 347 | 0.0 | 0.0 | 0.00 | 1.19 | 1.19 | 99 | 1019.4 |
| 20260901215145 | 68 | 346 | 0.0 | 0.0 | 0.00 | 1.19 | 1.19 | 99 | 1019.2 |
| 20260901214642 | 68 | 346 | 0.0 | 0.0 | 0.00 | 1.19 | 1.19 | 99 | 1019.5 |
| 20260901214137 | 69 | 347 | 0.0 | 0.0 | 0.00 | 1.19 | 1.19 | 99 | 1019.6 |
| 20260901213636 | 69 | 347 | 0.0 | 0.0 | 0.00 | 1.19 | 1.19 | 99 | 1019.3 |
| 20260901213131 | 69 | 346 | 0.0 | 0.0 | 0.00 | 1.19 | 1.19 | 99 | 1019.4 |
| 20260901212631 | 69 | 346 | 0.0 | 0.0 | 0.00 | 1.19 | 1.19 | 99 | 1019.3 |
| 20260901212127 | 69 | 345 | 0.0 | 0.0 | 0.00 | 1.19 | 1.19 | 99 | 1019.4 |
| 20260901211622 | 69 | 345 | 0.0 | 0.0 | 0.00 | 1.19 | 1.19 | 99 | 1019.2 |
| 20260901211119 | 69 | 345 | 0.0 | 0.0 | 0.00 | 1.19 | 1.19 | 99 | 1019.2 |
| 20260901210614 | 69 | 345 | 0.0 | 0.0 | 0.00 | 1.19 | 1.19 | 99 | 1019.3 |
| 20260901210110 | 69 | 345 | 0.0 | 0.0 | 0.00 | 1.19 | 1.19 | 99 | 1019.2 |
| 20260901205605 | 69 | 345 | 0.0 | 0.0 | 0.00 | 1.19 | 1.19 | 99 | 1019.5 |
| 20260901205059 | 69 | 345 | 0.0 | 0.0 | 0.00 | 1.19 | 1.19 | 99 | 1019.4 |
| 20260901204556 | 69 | 345 | 0.0 | 0.0 | 0.00 | 1.19 | 1.19 | 99 | 1019.6 |
| 20260901204050 | 69 | 345 | 0.0 | 0.0 | 0.00 | 1.19 | 1.19 | 99 | 1019.2 |
| 20260901203544 | 69 | 345 | 0.0 | 0.0 | 0.00 | 1.19 | 1.19 | 99 | 1019.2 |
| 20260901203040 | 69 | 345 | 0.0 | 0.0 | 0.00 | 1.19 | 1.19 | 99 | 1019.3 |
| 20260901202534 | 69 | 345 | 0.0 | 0.0 | 0.00 | 1.19 | 1.19 | 99 | 1019.1 |
| 20260901202031 | 69 | 345 | 0.0 | 0.0 | 0.00 | 1.19 | 1.19 | 99 | 1019.2 |
| 20260901201526 | 69 | 345 | 0.0 | 0.0 | 0.07 | 1.19 | 1.19 | 99 | 1019.2 |
| 20260901201020 | 69 | 345 | 0.0 | 0.0 | 0.07 | 1.19 | 1.19 | 99 | 1019.1 |
| 20260901200520 | 69 | 345 | 0.0 | 0.0 | 0.00 | 1.18 | 1.18 | 99 | 1019.0 |
| 20260901200020 | 69 | 345 | 0.0 | 0.0 | 0.00 | 1.18 | 1.18 | 99 | 1019.1 |
| 20260901195518 | 69 | 345 | 0.0 | 0.0 | 0.00 | 1.18 | 1.18 | 99 | 1019.2 |
| 20260901195017 | 69 | 345 | 0.0 | 0.0 | 0.00 | 1.18 | 1.18 | 99 | 1019.1 |
| 20260901194512 | 69 | 345 | 0.0 | 0.0 | 0.00 | 1.18 | 1.18 | 99 | 1019.0 |
| 20260901194008 | 69 | 345 | 0.0 | 0.0 | 0.00 | 1.18 | 1.18 | 99 | 1019.1 |
| 20260901193507 | 69 | 345 | 0.0 | 0.0 | 0.00 | 1.18 | 1.18 | 99 | 1018.9 |
| 20260901193002 | 69 | 345 | 0.0 | 0.0 | 0.00 | 1.18 | 1.18 | 99 | 1019.0 |
| 20260901192457 | 69 | 345 | 0.0 | 0.0 | 0.00 | 1.18 | 1.18 | 99 | 1018.9 |
| 20260901191953 | 69 | 345 | 0.0 | 0.0 | 0.00 | 1.18 | 1.18 | 99 | 1019.0 |
| 20260901191449 | 69 | 345 | 0.0 | 0.0 | 0.00 | 1.18 | 1.18 | 99 | 1018.8 |
| 20260901190944 | 69 | 35 | 0.0 | 0.0 | 0.00 | 1.18 | 1.18 | 99 | 1018.8 |
| 20260901190440 | 69 | 36 | 0.0 | 0.0 | 0.00 | 1.18 | 1.18 | 99 | 1019.1 |
| 20260901185938 | 69 | 36 | 0.0 | 0.0 | 0.00 | 1.18 | 1.18 | 99 | 1019.0 |
| 20260901185438 | 69 | 36 | 0.0 | 0.0 | 0.00 | 1.18 | 1.18 | 99 | 1018.7 |
| 20260901184937 | 69 | 36 | 0.0 | 0.0 | 0.05 | 1.18 | 1.18 | 99 | 1019.1 |
| 20260901184432 | 70 | 37 | 0.0 | 0.0 | 0.05 | 1.18 | 1.18 | 99 | 1018.9 |
| 20260901183928 | 70 | 349 | 0.0 | 0.0 | 0.00 | 1.17 | 1.17 | 99 | 1019.0 |
| 20260901183427 | 70 | 11 | 0.0 | 0.0 | 0.00 | 1.17 | 1.17 | 99 | 1019.0 |
| 20260901182923 | 70 | 11 | 0.0 | 0.0 | 0.07 | 1.17 | 1.17 | 99 | 1018.9 |
| 20260901182419 | 70 | 11 | 0.0 | 0.0 | 0.14 | 1.17 | 1.17 | 99 | 1018.8 |
| 20260901181913 | 69 | 11 | 0.0 | 0.0 | 0.19 | 1.16 | 1.16 | 99 | 1019.1 |
| 20260901181408 | 69 | 11 | 0.0 | 0.0 | 0.47 | 1.15 | 1.15 | 99 | 1018.9 |
| 20260901180907 | 69 | 11 | 0.0 | 0.0 | 0.73 | 1.14 | 1.14 | 99 | 1019.0 |
| 20260901180401 | 69 | 11 | 0.0 | 0.0 | 0.54 | 1.08 | 1.08 | 99 | 1018.9 |
| 20260901175859 | 69 | 338 | 0.0 | 0.0 | 0.17 | 1.02 | 1.02 | 99 | 1018.9 |
| 20260901175354 | 69 | 338 | 0.0 | 0.0 | 0.00 | 0.99 | 0.99 | 99 | 1018.9 |
| 20260901174849 | 69 | 338 | 0.0 | 0.0 | 0.00 | 0.99 | 0.99 | 99 | 1018.9 |
| 20260901174345 | 69 | 338 | 0.0 | 0.0 | 0.12 | 0.99 | 0.99 | 99 | 1018.8 |
| 20260901173840 | 70 | 338 | 0.0 | 0.0 | 0.31 | 0.99 | 0.99 | 99 | 1018.8 |
| 20260901173335 | 69 | 338 | 0.0 | 0.0 | 0.90 | 0.97 | 0.97 | 99 | 1018.6 |
| 20260901172832 | 69 | 338 | 0.0 | 0.0 | 1.13 | 0.94 | 0.94 | 99 | 1018.8 |
| 20260901172331 | 69 | 6 | 0.0 | 0.0 | 0.66 | 0.84 | 0.84 | 99 | 1018.7 |
| 20260901171829 | 69 | 8 | 0.0 | 0.0 | 0.28 | 0.74 | 0.74 | 99 | 1018.7 |
| 20260901171328 | 69 | 8 | 0.0 | 0.0 | 0.54 | 0.73 | 0.73 | 99 | 1018.8 |
| 20260901170827 | 69 | 9 | 0.0 | 0.0 | 0.35 | 0.70 | 0.70 | 99 | 1018.9 |
| 20260901170322 | 69 | 8 | 0.0 | 0.0 | 0.00 | 0.64 | 0.64 | 99 | 1019.0 |
| 20260901165821 | 70 | 9 | 0.0 | 0.0 | 0.07 | 0.64 | 0.64 | 99 | 1018.7 |
| 20260901165316 | 70 | 8 | 0.0 | 0.0 | 0.12 | 0.64 | 0.64 | 99 | 1018.6 |
| 20260901164813 | 70 | 8 | 0.0 | 0.0 | 0.71 | 0.63 | 0.63 | 99 | 1018.5 |
| 20260901164308 | 70 | 8 | 0.0 | 0.0 | 0.66 | 0.62 | 0.62 | 99 | 1018.8 |
| 20260901163802 | 70 | 348 | 0.0 | 0.0 | 0.05 | 0.52 | 0.52 | 99 | 1018.8 |
| 20260901163257 | 70 | 346 | 0.0 | 0.0 | 0.07 | 0.51 | 0.51 | 99 | 1018.7 |
| 20260901162752 | 70 | 347 | 0.0 | 0.0 | 0.19 | 0.51 | 0.51 | 99 | 1018.6 |
| 20260901162251 | 70 | 347 | 0.0 | 0.0 | 0.19 | 0.51 | 0.51 | 99 | 1018.6 |
| 20260901161750 | 70 | 347 | 0.0 | 0.0 | 0.24 | 0.49 | 0.49 | 99 | 1018.7 |
| 20260901161244 | 71 | 347 | 0.0 | 0.0 | 0.12 | 0.47 | 0.47 | 99 | 1018.8 |
| 20260901160741 | 71 | 347 | 0.0 | 0.0 | 0.00 | 0.45 | 0.45 | 99 | 1018.7 |
| 20260901160236 | 71 | 347 | 0.0 | 0.0 | 0.00 | 0.45 | 0.45 | 99 | 1018.9 |
| 20260901155735 | 72 | 347 | 0.0 | 0.0 | 0.00 | 0.45 | 0.45 | 99 | 1018.9 |
| 20260901155230 | 72 | 348 | 0.0 | 0.0 | 0.00 | 0.45 | 0.45 | 99 | 1019.0 |
| 20260901154725 | 72 | 348 | 0.0 | 0.0 | 0.00 | 0.45 | 0.45 | 99 | 1019.1 |
| 20260901154221 | 72 | 348 | 0.0 | 0.0 | 0.00 | 0.45 | 0.45 | 99 | 1019.2 |
| 20260901153716 | 72 | 348 | 0.0 | 0.0 | 0.00 | 0.45 | 0.45 | 99 | 1019.1 |
| 20260901153210 | 72 | 344 | 0.0 | 0.0 | 0.00 | 0.45 | 0.45 | 99 | 1019.1 |
| 20260901152704 | 72 | 344 | 0.0 | 0.0 | 0.07 | 0.45 | 0.45 | 99 | 1019.0 |
| 20260901152203 | 72 | 349 | 0.0 | 0.0 | 0.07 | 0.45 | 0.45 | 99 | 1019.0 |
| 20260901151658 | 72 | 348 | 0.0 | 0.0 | 0.07 | 0.45 | 0.45 | 99 | 1019.1 |
| 20260901151157 | 72 | 348 | 0.0 | 0.0 | 0.00 | 0.44 | 0.44 | 99 | 1019.0 |
| 20260901150651 | 72 | 348 | 0.0 | 0.0 | 0.00 | 0.44 | 0.44 | 99 | 1018.8 |
| 20260901150149 | 72 | 348 | 0.0 | 0.0 | 0.00 | 0.44 | 0.44 | 99 | 1018.8 |
| 20260901145648 | 72 | 355 | 0.0 | 0.0 | 0.00 | 0.44 | 0.44 | 99 | 1018.6 |
| 20260901145148 | 71 | 348 | 0.0 | 0.0 | 0.00 | 0.44 | 0.44 | 99 | 1018.7 |
| 20260901144643 | 72 | 349 | 0.0 | 0.0 | 0.00 | 0.44 | 0.44 | 99 | 1019.1 |
| 20260901144138 | 72 | 350 | 0.0 | 0.0 | 0.00 | 0.44 | 0.44 | 99 | 1019.1 |
| 20260901143633 | 72 | 350 | 0.0 | 0.0 | 0.00 | 0.44 | 0.44 | 99 | 1019.3 |
| 20260901143130 | 72 | 323 | 0.0 | 0.0 | 0.00 | 0.44 | 0.44 | 99 | 1019.1 |
| 20260901142626 | 73 | 322 | 0.0 | 0.0 | 0.00 | 0.44 | 0.44 | 99 | 1019.0 |
| 20260901142125 | 72 | 330 | 0.0 | 0.0 | 0.00 | 0.44 | 0.44 | 99 | 1019.0 |
| 20260901141620 | 71 | 330 | 0.0 | 0.0 | 0.00 | 0.44 | 0.44 | 99 | 1018.9 |
| 20260901141114 | 70 | 8 | 0.0 | 0.0 | 0.00 | 0.44 | 0.44 | 99 | 1019.2 |
| 20260901140613 | 71 | 10 | 0.0 | 0.0 | 0.00 | 0.44 | 0.44 | 99 | 1019.4 |
| 20260901140112 | 70 | 11 | 0.0 | 0.0 | 0.00 | 0.44 | 0.44 | 99 | 1019.2 |
| 20260901135612 | 70 | 11 | 0.0 | 0.0 | 0.00 | 0.44 | 0.44 | 99 | 1019.3 |
| 20260901135107 | 70 | 10 | 0.0 | 0.0 | 0.00 | 0.44 | 0.44 | 99 | 1019.2 |
| 20260901134603 | 70 | 12 | 0.0 | 0.0 | 0.00 | 0.44 | 0.44 | 99 | 1019.4 |
| 20260901134058 | 69 | 11 | 0.0 | 0.0 | 0.00 | 0.44 | 0.44 | 99 | 1019.3 |
| 20260901133557 | 69 | 11 | 0.0 | 0.0 | 0.00 | 0.44 | 0.44 | 99 | 1019.4 |
| 20260901133056 | 69 | 11 | 0.0 | 0.0 | 0.00 | 0.44 | 0.44 | 99 | 1019.7 |
| 20260901132551 | 69 | 10 | 0.0 | 0.0 | 0.00 | 0.44 | 0.44 | 99 | 1019.7 |
| 20260901132051 | 69 | 11 | 0.0 | 0.0 | 0.00 | 0.44 | 0.44 | 99 | 1019.9 |
| 20260901131550 | 69 | 10 | 0.0 | 0.0 | 0.00 | 0.44 | 0.44 | 99 | 1019.6 |
| 20260901131045 | 69 | 10 | 0.0 | 0.0 | 0.05 | 0.44 | 0.44 | 99 | 1019.7 |
| 20260901130540 | 69 | 10 | 0.0 | 0.0 | 0.05 | 0.44 | 0.44 | 99 | 1019.7 |
| 20260901130039 | 69 | 10 | 0.0 | 0.0 | 0.05 | 0.44 | 0.44 | 99 | 1019.5 |
| 20260901125537 | 69 | 10 | 0.0 | 0.0 | 0.00 | 0.43 | 0.43 | 99 | 1019.6 |
| 20260901125033 | 69 | 11 | 0.0 | 0.0 | 0.00 | 0.43 | 0.43 | 99 | 1019.7 |
| 20260901124532 | 69 | 11 | 0.0 | 0.0 | 0.00 | 0.43 | 0.43 | 99 | 1019.7 |
| 20260901124027 | 69 | 11 | 0.0 | 0.0 | 0.00 | 0.43 | 0.43 | 99 | 1019.7 |
| 20260901123522 | 68 | 11 | 0.0 | 0.0 | 0.07 | 0.43 | 0.43 | 99 | 1019.7 |
| 20260901123016 | 68 | 11 | 0.0 | 0.0 | 0.19 | 0.43 | 0.43 | 99 | 1019.7 |
| 20260901122515 | 68 | 11 | 0.0 | 0.0 | 0.31 | 0.42 | 0.42 | 99 | 1019.5 |
| 20260901122014 | 68 | 11 | 0.0 | 0.0 | 0.42 | 0.40 | 0.40 | 99 | 1019.9 |
| 20260901121509 | 68 | 10 | 0.0 | 0.0 | 0.35 | 0.38 | 0.38 | 99 | 1019.7 |
| 20260901121004 | 68 | 10 | 0.0 | 0.0 | 0.12 | 0.33 | 0.33 | 99 | 1019.7 |
| 20260901120504 | 68 | 10 | 0.0 | 0.0 | 0.07 | 0.32 | 0.32 | 99 | 1020.0 |
| 20260901115959 | 68 | 10 | 0.0 | 0.0 | 0.05 | 0.31 | 0.31 | 99 | 1020.1 |
| 20260901115454 | 68 | 10 | 0.0 | 0.0 | 0.05 | 0.31 | 0.31 | 99 | 1019.9 |
| 20260901114952 | 68 | 10 | 0.0 | 0.0 | 0.00 | 0.30 | 0.30 | 99 | 1019.7 |
| 20260901114447 | 68 | 10 | 0.0 | 0.0 | 0.00 | 0.30 | 0.30 | 99 | 1019.7 |
| 20260901113945 | 67 | 10 | 0.0 | 0.0 | 0.00 | 0.30 | 0.30 | 99 | 1019.9 |
| 20260901113444 | 67 | 10 | 0.0 | 0.0 | 0.00 | 0.30 | 0.30 | 99 | 1019.6 |
| 20260901112939 | 67 | 10 | 0.0 | 0.0 | 0.00 | 0.30 | 0.30 | 99 | 1019.6 |
| 20260901112434 | 67 | 10 | 0.0 | 0.0 | 0.00 | 0.30 | 0.30 | 99 | 1019.7 |
| 20260901111924 | 67 | 10 | 0.0 | 0.0 | 0.00 | 0.30 | 0.30 | 99 | 1019.5 |
| 20260901111422 | 67 | 10 | 0.0 | 0.0 | 0.00 | 0.30 | 0.30 | 99 | 1019.6 |
| 20260901110921 | 67 | 10 | 0.0 | 0.0 | 0.00 | 0.30 | 0.30 | 99 | 1019.4 |
| 20260901110417 | 67 | 10 | 0.0 | 0.0 | 0.07 | 0.30 | 0.30 | 99 | 1019.3 |
| 20260901105913 | 67 | 10 | 0.0 | 0.0 | 0.07 | 0.30 | 0.30 | 99 | 1019.4 |
| 20260901105408 | 67 | 10 | 0.0 | 0.0 | 0.00 | 0.29 | 0.29 | 99 | 1019.4 |
| 20260901104904 | 67 | 10 | 0.0 | 0.0 | 0.00 | 0.29 | 0.29 | 99 | 1019.2 |
| 20260901104359 | 67 | 10 | 0.0 | 0.0 | 0.00 | 0.29 | 0.29 | 99 | 1019.2 |
| 20260901103854 | 67 | 10 | 0.0 | 0.0 | 0.00 | 0.29 | 0.29 | 99 | 1019.0 |
| 20260901103348 | 67 | 10 | 0.0 | 0.0 | 0.07 | 0.29 | 0.29 | 99 | 1019.3 |
| 20260901102843 | 67 | 10 | 0.0 | 0.0 | 0.54 | 0.29 | 0.29 | 99 | 1019.2 |
| 20260901102338 | 67 | 10 | 0.0 | 0.0 | 0.78 | 0.28 | 0.28 | 99 | 1019.2 |
| 20260901101834 | 67 | 7 | 0.0 | 0.0 | 0.26 | 0.19 | 0.19 | 99 | 1019.5 |
| 20260901101333 | 67 | 357 | 0.0 | 0.0 | 0.00 | 0.15 | 0.15 | 99 | 1019.2 |
| 20260901100833 | 67 | 357 | 0.0 | 0.0 | 0.05 | 0.15 | 0.15 | 99 | 1018.9 |
| 20260901100327 | 67 | 357 | 0.0 | 0.0 | 0.05 | 0.15 | 0.15 | 99 | 1019.0 |
| 20260901095827 | 67 | 357 | 0.0 | 0.0 | 0.07 | 0.14 | 0.14 | 99 | 1019.3 |
| 20260901095324 | 67 | 357 | 0.0 | 0.0 | 0.12 | 0.14 | 0.14 | 99 | 1019.1 |
| 20260901094818 | 67 | 357 | 0.0 | 0.0 | 0.12 | 0.13 | 0.13 | 99 | 1019.2 |
| 20260901094313 | 67 | 357 | 0.0 | 0.0 | 0.12 | 0.13 | 0.13 | 99 | 1019.0 |
| 20260901093808 | 67 | 357 | 0.0 | 0.0 | 0.12 | 0.12 | 0.12 | 99 | 1019.1 |
| 20260901093307 | 67 | 341 | 0.0 | 0.0 | 0.17 | 0.11 | 0.11 | 99 | 1018.8 |
| 20260901092803 | 67 | 341 | 0.0 | 0.0 | 0.19 | 0.10 | 0.10 | 99 | 1019.1 |
| 20260901092259 | 67 | 341 | 0.0 | 0.0 | 0.12 | 0.08 | 0.08 | 99 | 1019.2 |
| 20260901091755 | 67 | 341 | 0.0 | 0.0 | 0.12 | 0.07 | 0.07 | 99 | 1019.3 |
| 20260901091249 | 67 | 341 | 0.0 | 0.0 | 0.12 | 0.06 | 0.06 | 99 | 1019.3 |
| 20260901090744 | 67 | 341 | 0.0 | 0.0 | 0.12 | 0.05 | 0.05 | 99 | 1019.4 |
| 20260901090239 | 67 | 341 | 0.0 | 0.0 | 0.19 | 0.04 | 0.04 | 99 | 1019.2 |
| 20260901085735 | 67 | 341 | 0.0 | 0.0 | 0.12 | 0.02 | 0.02 | 99 | 1019.5 |
| 20260901085230 | 67 | 341 | 0.0 | 0.0 | 0.07 | 0.01 | 0.01 | 99 | 1019.6 |
| 20260901084726 | 67 | 341 | 0.0 | 0.0 | 0.00 | 0.00 | 0.00 | 99 | 1019.5 |
| 20260901084222 | 67 | 341 | 0.0 | 0.0 | 0.00 | 0.00 | 0.00 | 99 | 1019.2 |
| 20260901083717 | 67 | 341 | 0.0 | 0.0 | 0.00 | 0.00 | 0.00 | 99 | 1019.5 |
| 20260901083216 | 67 | 341 | 0.0 | 0.0 | 0.00 | 0.00 | 0.00 | 99 | 1019.8 |
| 20260901082715 | 67 | 341 | 0.0 | 0.0 | 0.00 | 0.00 | 0.00 | 99 | 1019.8 |
| 20260901082211 | 67 | 4 | 0.0 | 0.0 | 0.00 | 0.00 | 0.00 | 99 | 1019.4 |
| 20260901081706 | 67 | 4 | 0.0 | 0.0 | 0.00 | 0.00 | 0.00 | 99 | 1019.8 |
| 20260901081206 | 67 | 5 | 0.0 | 0.0 | 0.00 | 0.00 | 0.00 | 99 | 1019.7 |
| 20260901080701 | 67 | 5 | 0.0 | 0.0 | 0.00 | 0.00 | 0.00 | 99 | 1019.9 |
| 20260901080159 | 67 | 338 | 0.0 | 0.0 | 0.00 | 0.00 | 0.00 | 99 | 1019.6 |
| 20260901075654 | 67 | 338 | 0.0 | 0.0 | 0.00 | 0.00 | 0.00 | 99 | 1019.9 |
| 20260901075149 | 67 | 338 | 0.0 | 0.0 | 0.00 | 0.00 | 0.00 | 99 | 1020.2 |
| 20260901074648 | 67 | 338 | 0.0 | 0.0 | 0.00 | 0.00 | 0.00 | 99 | 1020.1 |
| 20260901074144 | 67 | 338 | 0.0 | 0.0 | 0.00 | 0.00 | 0.00 | 99 | 1020.2 |
| 20260901073640 | 67 | 338 | 0.0 | 0.0 | 0.00 | 0.00 | 0.00 | 99 | 1020.2 |
| 20260901073135 | 67 | 338 | 0.0 | 0.0 | 0.00 | 0.00 | 0.00 | 99 | 1020.2 |
| 20260901072630 | 67 | 338 | 0.0 | 0.0 | 0.00 | 0.00 | 0.00 | 99 | 1020.2 |
| 20260901072125 | 67 | 338 | 0.0 | 0.0 | 0.00 | 0.00 | 0.00 | 99 | 1020.3 |
| 20260901071625 | 67 | 338 | 0.0 | 0.0 | 0.00 | 0.00 | 0.00 | 99 | 1020.1 |
| 20260901071125 | 67 | 338 | 0.0 | 0.0 | 0.00 | 0.00 | 0.00 | 99 | 1020.1 |
| 20260901070619 | 67 | 338 | 0.0 | 0.0 | 0.00 | 0.00 | 0.00 | 99 | 1020.2 |
| 20260901070114 | 67 | 349 | 0.0 | 0.0 | 0.00 | 0.00 | 0.00 | 99 | 1020.0 |
| 20260901065608 | 67 | 3 | 0.0 | 0.0 | 0.00 | 0.00 | 0.00 | 99 | 1019.9 |
| 20260901065103 | 67 | 8 | 0.0 | 0.0 | 0.00 | 0.00 | 0.00 | 99 | 1019.9 |
| 20260901064600 | 67 | 0 | 0.0 | 0.0 | 0.00 | 0.00 | 0.00 | 99 | 1020.0 |
| 20260901064056 | 67 | 1 | 0.0 | 0.0 | 0.00 | 0.00 | 0.00 | 99 | 1020.1 |
| 20260901063553 | 67 | 0 | 0.0 | 0.0 | 0.00 | 0.00 | 0.00 | 99 | 1020.1 |
| 20260901063049 | 67 | 0 | 0.0 | 0.0 | 0.00 | 0.00 | 0.00 | 99 | 1020.3 |
| 20260901062544 | 67 | 0 | 0.0 | 0.0 | 0.00 | 0.00 | 0.00 | 99 | 1020.8 |
| 20260901062040 | 67 | 1 | 0.0 | 0.0 | 0.00 | 0.00 | 0.00 | 99 | 1020.9 |
| 20260901061537 | 67 | 1 | 0.0 | 0.0 | 0.00 | 0.00 | 0.00 | 99 | 1021.0 |
| 20260901061036 | 67 | 1 | 0.0 | 0.0 | 0.00 | 0.00 | 0.00 | 99 | 1020.8 |
| 20260901060531 | 67 | 1 | 0.0 | 0.0 | 0.00 | 0.00 | 0.00 | 99 | 1021.0 |
| 20260901060026 | 67 | 1 | 0.0 | 0.0 | 0.00 | 0.00 | 0.00 | 99 | 1021.2 |
| 20260901055521 | 67 | 1 | 0.0 | 0.0 | 0.00 | 0.00 | 0.00 | 99 | 1020.9 |
| 20260901055018 | 67 | 1 | 0.0 | 0.0 | 0.00 | 0.00 | 0.00 | 99 | 1021.1 |
| 20260901054515 | 67 | 1 | 0.0 | 0.0 | 0.00 | 0.00 | 0.00 | 99 | 1020.9 |
| 20260901054011 | 67 | 1 | 0.0 | 0.0 | 0.00 | 0.00 | 0.00 | 99 | 1021.0 |
| 20260901053506 | 67 | 1 | 0.0 | 0.0 | 0.00 | 0.00 | 0.00 | 99 | 1021.0 |
| 20260901053002 | 67 | 1 | 0.0 | 0.0 | 0.00 | 0.00 | 0.00 | 99 | 1021.0 |
| 20260901052458 | 67 | 1 | 0.0 | 0.0 | 0.00 | 0.00 | 0.00 | 99 | 1020.9 |
| 20260901051956 | 67 | 1 | 0.0 | 0.0 | 0.00 | 0.00 | 0.00 | 99 | 1020.8 |
| 20260901051452 | 67 | 1 | 0.0 | 0.0 | 0.00 | 0.00 | 0.00 | 99 | 1020.8 |
| 20260901050951 | 67 | 1 | 0.0 | 0.0 | 0.00 | 0.00 | 0.00 | 99 | 1021.0 |
| 20260901050446 | 67 | 1 | 0.0 | 0.0 | 0.00 | 0.00 | 0.00 | 99 | 1021.3 |
| 20260901045946 | 67 | 1 | 0.0 | 0.0 | 0.00 | 0.00 | 0.00 | 99 | 1021.5 |
| 20260901045441 | 67 | 1 | 0.0 | 0.0 | 0.00 | 0.00 | 0.00 | 99 | 1021.4 |
| 20260901044936 | 67 | 1 | 0.0 | 0.0 | 0.00 | 0.00 | 0.00 | 99 | 1021.6 |
| 20260901044432 | 67 | 1 | 0.0 | 0.0 | 0.00 | 0.00 | 0.00 | 99 | 1021.6 |
| 20260901043928 | 67 | 1 | 0.0 | 0.0 | 0.00 | 0.00 | 0.00 | 99 | 1021.3 |
| 20260901043424 | 67 | 3 | 0.0 | 0.0 | 0.00 | 0.00 | 0.00 | 99 | 1021.2 |
| 20260901042918 | 67 | 3 | 0.0 | 0.0 | 0.00 | 0.00 | 0.00 | 99 | 1021.3 |
| 20260901042413 | 67 | 341 | 0.0 | 0.0 | 0.00 | 0.00 | 0.00 | 99 | 1021.2 |
| 20260901041908 | 67 | 338 | 0.0 | 0.0 | 0.00 | 0.00 | 0.00 | 99 | 1021.4 |
| 20260901041408 | 67 | 337 | 0.0 | 0.0 | 0.00 | 0.00 | 0.00 | 99 | 1021.2 |
| 20260901040908 | 67 | 1 | 0.0 | 0.0 | 0.00 | 0.00 | 0.00 | 99 | 1021.1 |
| 20260901040408 | 67 | 1 | 0.0 | 0.0 | 0.00 | 0.00 | 0.00 | 99 | 1021.1 |
| 20260901035902 | 67 | 1 | 0.0 | 0.0 | 0.00 | 0.00 | 0.00 | 99 | 1021.1 |
| 20260901035400 | 67 | 334 | 0.0 | 0.0 | 0.00 | 0.00 | 0.00 | 99 | 1021.2 |
| 20260901034859 | 67 | 338 | 0.0 | 0.0 | 0.00 | 0.00 | 0.00 | 99 | 1021.3 |
| 20260901034354 | 67 | 338 | 0.0 | 0.0 | 0.00 | 0.00 | 0.00 | 99 | 1020.9 |
| 20260901033849 | 67 | 338 | 0.0 | 0.0 | 0.00 | 0.00 | 0.00 | 99 | 1021.1 |
| 20260901033348 | 67 | 338 | 0.0 | 0.0 | 0.00 | 0.00 | 0.00 | 99 | 1021.2 |
| 20260901032847 | 67 | 338 | 0.0 | 0.0 | 0.00 | 0.00 | 0.00 | 99 | 1021.7 |
| 20260901032346 | 67 | 338 | 0.0 | 0.0 | 0.00 | 0.00 | 0.00 | 99 | 1021.8 |
| 20260901031842 | 67 | 338 | 0.0 | 0.0 | 0.00 | 0.00 | 0.00 | 99 | 1021.6 |
| 20260901031338 | 67 | 338 | 0.0 | 0.0 | 0.00 | 0.00 | 0.00 | 99 | 1021.6 |
| 20260901030837 | 67 | 338 | 0.0 | 0.0 | 0.00 | 0.00 | 0.00 | 99 | 1021.6 |
| 20260901030332 | 67 | 338 | 0.0 | 0.0 | 0.00 | 0.00 | 0.00 | 99 | 1021.9 |
| 20260901025831 | 67 | 337 | 0.0 | 0.0 | 0.00 | 0.00 | 0.00 | 99 | 1021.7 |
| 20260901025326 | 67 | 7 | 0.0 | 0.0 | 0.00 | 0.00 | 0.00 | 99 | 1021.8 |
| 20260901024816 | 67 | 7 | 0.0 | 0.0 | 0.00 | 0.00 | 0.00 | 99 | 1022.0 |
| 20260901024315 | 67 | 7 | 0.0 | 0.0 | 0.00 | 0.00 | 0.00 | 99 | 1021.8 |
| 20260901023813 | 67 | 7 | 0.0 | 0.0 | 0.00 | 0.00 | 0.00 | 99 | 1021.9 |
| 20260901023308 | 67 | 7 | 0.0 | 0.0 | 0.00 | 0.00 | 0.00 | 99 | 1021.9 |
| 20260901022804 | 67 | 7 | 0.0 | 0.0 | 0.00 | 0.00 | 0.00 | 99 | 1021.8 |
| 20260901022259 | 67 | 8 | 0.0 | 0.0 | 0.00 | 0.00 | 0.00 | 99 | 1022.0 |
| 20260901021754 | 67 | 8 | 0.0 | 0.0 | 0.00 | 0.00 | 0.00 | 99 | 1021.8 |
| 20260901021250 | 67 | 8 | 0.0 | 0.0 | 0.00 | 0.00 | 0.00 | 99 | 1022.1 |
| 20260901020745 | 67 | 8 | 0.0 | 0.0 | 0.00 | 0.00 | 0.00 | 99 | 1021.8 |
| 20260901020240 | 67 | 26 | 0.0 | 0.0 | 0.00 | 0.00 | 0.00 | 99 | 1022.1 |
| 20260901015735 | 67 | 10 | 0.0 | 0.0 | 0.00 | 0.00 | 0.00 | 99 | 1022.0 |
| 20260901015231 | 67 | 17 | 0.0 | 0.0 | 0.00 | 0.00 | 0.00 | 99 | 1021.9 |
| 20260901014730 | 67 | 32 | 0.0 | 0.0 | 0.00 | 0.00 | 0.00 | 99 | 1022.1 |
| 20260901014226 | 67 | 36 | 0.0 | 0.0 | 0.00 | 0.00 | 0.00 | 99 | 1021.7 |
| 20260901013721 | 67 | 36 | 0.0 | 0.0 | 0.00 | 0.00 | 0.00 | 99 | 1021.9 |
| 20260901013217 | 67 | 350 | 0.0 | 0.0 | 0.00 | 0.00 | 0.00 | 99 | 1021.7 |
| 20260901012712 | 67 | 14 | 0.0 | 0.0 | 0.00 | 0.00 | 0.00 | 99 | 1021.7 |